Weather reports worldwide

Advertisment
Capo Mele, Italy (16153): temperature & dewpoint: 09.12.2019 18:00:00 - 15.12.2019 18:00:00 (CET)Capo Mele, Italy (16153): wind speed: 09.12.2019 18:00:00 - 15.12.2019 18:00:00 (CET)Capo Mele, Italy (16153): wind direction: 09.12.2019 18:00:00 - 15.12.2019 18:00:00 (CET)Capo Mele, Italy (16153): reduced air pressure: 09.12.2019 18:00:00 - 15.12.2019 18:00:00 (CET)Capo Mele, Italy (16153): visibility: 09.12.2019 18:00:00 - 15.12.2019 18:00:00 (CET)Capo Mele, Italy (16153): sunshine duration: 09.12.2019 18:00:00 - 15.12.2019 18:00:00 (CET)
Date & Time tt [°C] td [°C] ff [km/h] ff [kn] dd ppp [hPa] vv [km] sd [min]
15.12.2019 18:00:00 13,0 10,9 34 18 SW 1015,3 20 -
15.12.2019 17:00:00 13,2 13,0 34 18 SSW 1014,7 20 0
15.12.2019 16:00:00 13,6 13,3 26 14 SSW 1014,3 20 6
15.12.2019 15:00:00 13,8 13,5 29 16 SSW 1013,8 20 12
15.12.2019 14:00:00 14,0 12,4 22 12 SSW 1014,2 20 12
15.12.2019 13:00:00 13,4 11,5 18 10 S 1014,3 20 12
15.12.2019 12:00:00 13,6 11,1 15 8 NNE 1014,4 20 36
15.12.2019 11:00:00 14,0 12,2 4 2 NNE 1014,2 20 0
15.12.2019 10:00:00 12,2 11,3 8 4 NNE 1013,3 20 6
15.12.2019 09:00:00 11,2 9,6 8 4 NNE 1011,9 20 0
15.12.2019 08:00:00 11,8 10,2 0 0 N 1011,3 20 -
15.12.2019 07:00:00 11,8 10,2 4 2 N 1011,2 20 -
15.12.2019 06:00:00 12,0 10,1 11 6 NNE 1010,8 20 -
15.12.2019 05:00:00 12,0 9,7 11 6 N 1010,5 20 -
15.12.2019 04:00:00 12,2 9,0 13 7 NNE 1010,3 20 -
15.12.2019 03:00:00 12,4 10,5 15 8 NNE 1010,3 20 -
15.12.2019 02:00:00 12,4 11,5 15 8 N 1010,3 20 -
15.12.2019 01:00:00 12,0 11,5 16 9 N 1010,2 20 -
15.12.2019 00:00:00 12,0 11,7 13 7 NNE 1009,2 20 -
14.12.2019 23:00:00 12,0 10,6 15 8 N 1009,2 30 -
14.12.2019 22:00:00 12,0 10,7 15 8 N 1008,7 30 -
14.12.2019 21:00:00 12,4 10,5 15 8 N 1008,4 30 -
14.12.2019 20:00:00 12,0 10,1 11 6 SSW 1008,2 30 -
14.12.2019 19:00:00 12,0 11,2 9 5 ENE 1007,5 30 -
14.12.2019 18:00:00 12,0 10,9 9 5 NE 1007,2 25 -
14.12.2019 17:00:00 13,8 11,3 11 6 ENE 1006,1 25 48
14.12.2019 16:00:00 16,0 11,4 13 7 NE 1004,8 20 60
14.12.2019 15:00:00 17,0 11,1 9 5 NNE 1004,5 20 60
14.12.2019 14:00:00 17,4 11,2 8 4 NE 1003,4 20 60
14.12.2019 13:00:00 17,0 10,4 8 4 NNE 1002,7 20 60
14.12.2019 12:00:00 16,8 9,2 8 4 N 1002,6 20 60
14.12.2019 11:00:00 15,4 8,2 8 4 NNE 1001,6 20 60
14.12.2019 10:00:00 14,4 7,9 8 4 NNE 1000,2 25 60
14.12.2019 09:00:00 12,4 6,9 8 4 NNE 999,1 25 42
14.12.2019 08:00:00 10,4 6,0 11 6 NNE 998,2 40 -
14.12.2019 07:00:00 10,2 3,7 11 6 NNE 997,1 50 -
14.12.2019 06:00:00 10,2 2,1 4 2 SSW 996,2 50 -
14.12.2019 05:00:00 10,2 2,1 4 2 S 996,1 50 -
14.12.2019 04:00:00 10,2 3,9 4 2 SSW 996,1 50 -
14.12.2019 03:00:00 11,0 -5,1 0 0 N 996,0 50 -
14.12.2019 02:00:00 10,6 -5,4 0 0 N 995,0 50 -
14.12.2019 01:00:00 11,2 -5,3 0 0 N 995,8 50 -
14.12.2019 00:00:00 11,0 -4,3 0 0 N 994,7 50 -
13.12.2019 23:00:00 11,2 -6,2 0 0 N 993,6 50 -
13.12.2019 22:00:00 11,0 -5,0 4 2 S 992,9 50 -
13.12.2019 21:00:00 11,0 -5,5 4 2 ENE 992,1 50 -
13.12.2019 20:00:00 10,6 -2,4 5 3 S 991,7 20 -
13.12.2019 19:00:00 11,0 -5,0 8 4 SSE 990,4 20 -
13.12.2019 18:00:00 9,0 2,6 9 5 N 989,5 20 -
13.12.2019 17:00:00 9,0 5,4 5 3 WSW 988,0 20 60
13.12.2019 16:00:00 10,6 5,4 15 8 SSW 985,8 10 60
13.12.2019 15:00:00 10,4 4,8 5 3 WSW 985,2 20 60
13.12.2019 14:00:00 11,0 7,3 11 6 NNW 984,7 20 24
13.12.2019 13:00:00 7,6 5,6 9 5 NNW 985,3 10 0
13.12.2019 12:00:00 7,0 7,0 8 4 NNW 988,2 10 0
13.12.2019 11:00:00 7,8 7,7 4 2 N 986,9 4,0 0
13.12.2019 10:00:00 8,0 7,9 4 2 N 989,1 4,0 0
13.12.2019 09:00:00 8,4 7,7 5 3 N 991,6 8 0
13.12.2019 08:00:00 8,4 8,2 22 12 WSW 991,2 15 -
13.12.2019 07:00:00 8,0 7,3 22 12 WSW 992,6 20 -
13.12.2019 06:00:00 7,6 7,6 28 15 WSW 993,2 20 -
13.12.2019 05:00:00 7,0 5,5 28 15 W 994,4 20 -
13.12.2019 04:00:00 8,6 5,5 22 12 W 996,1 20 -
13.12.2019 03:00:00 8,8 5,2 22 12 WSW 996,5 25 -
13.12.2019 02:00:00 9,2 8,0 28 15 WSW 998,2 25 -
13.12.2019 01:00:00 9,6 7,9 28 15 SW 999,3 25 -
13.12.2019 00:00:00 10,2 6,7 22 12 WSW 1000,2 30 -
12.12.2019 23:00:00 10,2 7,8 18 10 WSW 1001,0 30 -
12.12.2019 22:00:00 10,0 7,8 22 12 SW 1001,2 20 -
12.12.2019 21:00:00 10,2 7,6 18 10 SW 1002,2 35 -
12.12.2019 20:00:00 10,0 7,9 11 6 SSW 1002,8 35 -
12.12.2019 19:00:00 10,2 7,6 8 4 SW 1003,1 35 -
12.12.2019 18:00:00 10,0 7,8 0 0 N 1003,2 25 -
12.12.2019 17:00:00 10,4 7,5 11 6 SSW 1003,5 25 0
12.12.2019 16:00:00 10,4 7,1 15 8 SSW 1003,6 35 24
12.12.2019 15:00:00 12,4 8,3 18 10 S 1004,0 35 42
12.12.2019 14:00:00 13,4 8,2 18 10 S 1004,0 35 60
12.12.2019 13:00:00 13,2 7,2 11 6 SSW 1004,3 35 60
12.12.2019 12:00:00 13,8 8,2 11 6 SSW 1004,6 35 60
12.12.2019 11:00:00 13,4 7,6 4 2 NNE 1004,6 35 60
12.12.2019 10:00:00 12,4 8,3 5 3 NNE 1004,3 35 48
12.12.2019 09:00:00 9,8 6,7 11 6 NNE 1004,3 35 12
12.12.2019 08:00:00 7,8 4,9 11 6 N 1004,3 30 -
12.12.2019 07:00:00 7,2 4,7 13 7 N 1004,3 20 -
12.12.2019 06:00:00 8,6 6,2 11 6 N 1004,2 25 -
12.12.2019 05:00:00 8,2 4,2 15 8 N 1004,2 25 -
12.12.2019 04:00:00 8,0 4,8 9 5 N 1004,2 20 -
12.12.2019 03:00:00 8,8 6,2 15 8 N 1005,6 15 -
12.12.2019 02:00:00 7,4 5,0 18 10 NW 1005,7 15 -
12.12.2019 01:00:00 8,0 7,9 15 8 SW 1006,3 12 -
12.12.2019 00:00:00 8,0 7,7 18 10 WSW 1006,5 12 -
11.12.2019 23:00:00 10,0 6,0 11 6 W 1007,3 15 -
11.12.2019 22:00:00 10,0 5,0 15 8 WSW 1007,5 20 -
11.12.2019 21:00:00 10,2 4,4 11 6 SW 1008,5 30 -
11.12.2019 20:00:00 11,0 7,5 22 12 WSW 1009,4 40 -
11.12.2019 19:00:00 11,0 7,7 22 12 W 1010,2 20 -
11.12.2019 18:00:00 11,0 7,5 28 15 W 1010,7 50 -
11.12.2019 17:00:00 11,0 6,2 22 12 W 1011,4 50 0
11.12.2019 16:00:00 11,0 5,1 28 15 W 1012,4 45 0
11.12.2019 15:00:00 12,0 5,9 22 12 W 1013,4 40 0
11.12.2019 14:00:00 12,6 6,2 22 12 W 1014,2 40 0
11.12.2019 13:00:00 12,6 5,5 18 10 W 1015,4 40 6
11.12.2019 12:00:00 12,8 2,9 15 8 W 1016,4 45 42
11.12.2019 11:00:00 13,6 0,9 9 5 WSW 1017,2 45 60
11.12.2019 10:00:00 13,0 -1,0 5 3 W 1017,4 40 60
11.12.2019 09:00:00 11,2 -3,3 9 5 W 1017,6 35 18
11.12.2019 08:00:00 10,2 -7,0 8 4 WNW 1018,4 30 -
11.12.2019 07:00:00 10,4 -7,3 9 5 NNE 1018,6 35 -
11.12.2019 06:00:00 10,4 -7,8 9 5 N 1019,6 35 -
11.12.2019 05:00:00 10,2 -8,0 8 4 NNE 1019,7 35 -
11.12.2019 04:00:00 10,6 -7,6 9 5 N 1020,7 35 -
11.12.2019 03:00:00 10,6 -7,6 9 5 NNE 1020,7 35 -
11.12.2019 02:00:00 10,8 -6,5 9 5 NNE 1021,0 35 -
11.12.2019 01:00:00 10,8 -6,5 11 6 N 1021,5 35 -
11.12.2019 00:00:00 10,4 -6,0 16 9 NNE 1021,3 35 -
10.12.2019 23:00:00 10,8 -5,2 22 12 NNE 1020,8 35 -
10.12.2019 22:00:00 11,0 -3,9 22 12 NNE 1020,7 35 -
10.12.2019 21:00:00 11,0 -3,9 26 14 NNE 1020,6 35 -
10.12.2019 20:00:00 10,2 -5,3 26 14 NNE 1019,9 35 -
10.12.2019 19:00:00 10,8 -4,4 11 6 NNE 1019,5 40 -
10.12.2019 18:00:00 11,6 -3,7 11 6 N 1016,5 40 -
10.12.2019 17:00:00 12,6 -3,6 15 8 N 1016,7 40 6
10.12.2019 16:00:00 14,4 -3,9 16 9 N 1016,2 40 60
10.12.2019 15:00:00 15,2 -3,7 34 18 NNE 1016,9 40 60
10.12.2019 14:00:00 16,2 -1,8 29 16 N 1017,0 40 60
10.12.2019 13:00:00 16,0 -6,9 26 14 N 1017,0 40 60
10.12.2019 12:00:00 15,8 -2,2 28 15 NNE 1017,0 40 60
10.12.2019 11:00:00 15,2 -1,8 18 10 N 1017,1 40 60
10.12.2019 10:00:00 14,0 -2,4 29 16 N 1016,1 20 60
10.12.2019 09:00:00 13,0 -3,3 29 16 N 1014,5 40 18
10.12.2019 08:00:00 12,8 -3,5 22 12 N 1013,6 40 -
10.12.2019 07:00:00 13,2 -4,9 8 4 NE 1012,2 30 -
10.12.2019 06:00:00 13,0 -3,7 15 8 NNE 1011,2 30 -
10.12.2019 05:00:00 13,0 -3,3 11 6 NNE 1010,6 30 -
10.12.2019 04:00:00 13,0 -2,5 15 8 NE 1010,0 30 -
10.12.2019 03:00:00 12,8 -1,2 15 8 NE 1009,4 25 -
10.12.2019 02:00:00 12,4 0,8 15 8 NE 1009,2 25 -
10.12.2019 01:00:00 11,4 5,3 15 8 NNE 1008,8 25 -
10.12.2019 00:00:00 11,2 10,3 15 8 NNE 1008,5 25 -
09.12.2019 23:00:00 11,6 9,3 11 6 NNE 1008,2 25 -
09.12.2019 22:00:00 12,0 9,7 15 8 NNE 1008,0 25 -
09.12.2019 21:00:00 12,0 9,5 11 6 NNE 1007,4 25 -
09.12.2019 20:00:00 12,0 9,9 11 6 N 1007,2 25 -
09.12.2019 19:00:00 12,0 10,4 9 5 NE 1007,1 25 -
09.12.2019 18:00:00 12,4 10,6 9 5 NE 1006,7 25 -

tt = temperature
td = dewpoint
ff = wind speed
dd = wind direction
ppp = reduced air pressure
vv = visibility
sd = sunshine duration

Next stations